Time,TemperatureF,DewpointF,PressureIn,WindDirection,WindDirectionDegrees,WindSpeedMPH,WindSpeedGustMPH,Humidity,HourlyPrecipIn,Conditions,Clouds,dailyrainin,SoftwareType,DateUTC
2013-02-19 00:00:00,56.4,0.0,0.00,WSW,255,2.7,4.3,0,0.01,,,0.00,WUHU216PEETBRO,2013-02-19 06:00:00,
2013-02-19 00:06:00,57.0,0.0,0.00,WSW,255,1.5,4.3,0,0.00,,,0.00,WUHU216PEETBRO,2013-02-19 06:06:00,
2013-02-19 00:11:00,56.7,0.0,0.00,WSW,252,0.0,4.2,0,0.00,,,0.00,WUHU216PEETBRO,2013-02-19 06:11:00,
2013-02-19 00:16:00,56.7,0.0,0.00,WSW,252,0.0,4.2,0,0.00,,,0.00,WUHU216PEETBRO,2013-02-19 06:16:00,
2013-02-19 00:21:00,57.0,0.0,0.00,West,263,1.8,5.5,0,0.00,,,0.00,WUHU216PEETBRO,2013-02-19 06:21:00,
2013-02-19 00:26:00,56.2,0.0,0.00,NW,317,2.2,7.0,0,0.00,,,0.00,WUHU216PEETBRO,2013-02-19 06:26:00,
2013-02-19 00:32:00,56.7,0.0,0.00,North,11,4.3,8.0,0,0.00,,,0.00,WUHU216PEETBRO,2013-02-19 06:32:00,
2013-02-19 00:37:00,55.9,0.0,0.00,NNW,343,5.8,12.8,0,0.00,,,0.00,WUHU216PEETBRO,2013-02-19 06:37:00,
2013-02-19 00:42:00,55.9,0.0,0.00,NW,319,6.5,15.9,0,0.00,,,0.00,WUHU216PEETBRO,2013-02-19 06:42:00,
2013-02-19 00:48:00,55.9,0.0,0.00,NNW,345,14.4,15.9,0,0.00,,,0.00,WUHU216PEETBRO,2013-02-19 06:48:00,
2013-02-19 00:53:00,55.7,0.0,0.00,North,9,10.7,14.4,0,0.00,,,0.00,WUHU216PEETBRO,2013-02-19 06:53:00,
2013-02-19 00:58:00,55.4,0.0,0.00,NNW,341,5.2,14.5,0,0.00,,,0.00,WUHU216PEETBRO,2013-02-19 06:58:00,
2013-02-19 01:03:00,55.1,0.0,0.00,NW,314,12.9,14.5,0,0.00,,,0.00,WUHU216PEETBRO,2013-02-19 07:03:00,
2013-02-19 01:08:00,54.6,0.0,0.00,North,11,6.6,13.1,0,0.00,,,0.00,WUHU216PEETBRO,2013-02-19 07:08:00,
2013-02-19 01:14:00,54.3,0.0,0.00,North,352,5.5,13.1,0,0.00,,,0.00,WUHU216PEETBRO,2013-02-19 07:14:00,
2013-02-19 01:19:00,54.3,0.0,0.00,NW,319,5.8,10.2,0,0.00,,,0.00,WUHU216PEETBRO,2013-02-19 07:19:00,
2013-02-19 01:24:00,54.6,0.0,0.00,NW,326,6.1,9.8,0,0.00,,,0.00,WUHU216PEETBRO,2013-02-19 07:24:00,
2013-02-19 01:29:00,54.1,0.0,0.00,North,359,6.4,10.2,0,0.00,,,0.00,WUHU216PEETBRO,2013-02-19 07:29:00,
2013-02-19 01:35:00,54.3,0.0,0.00,NW,317,7.1,11.2,0,0.00,,,0.00,WUHU216PEETBRO,2013-02-19 07:35:00,
2013-02-19 01:40:00,53.9,0.0,0.00,NW,323,4.0,11.2,0,0.00,,,0.00,WUHU216PEETBRO,2013-02-19 07:40:00,
2013-02-19 01:45:00,53.5,0.0,0.00,North,359,4.8,10.4,0,0.00,,,0.00,WUHU216PEETBRO,2013-02-19 07:45:00,
2013-02-19 01:50:00,53.9,0.0,0.00,NNW,340,7.1,10.4,0,0.00,,,0.00,WUHU216PEETBRO,2013-02-19 07:50:00,
2013-02-19 01:56:00,53.5,0.0,0.00,North,1,7.5,11.0,0,0.00,,,0.00,WUHU216PEETBRO,2013-02-19 07:56:00,
2013-02-19 02:01:00,53.6,0.0,0.00,NNW,338,6.1,11.7,0,0.00,,,0.00,WUHU216PEETBRO,2013-02-19 08:01:00,
2013-02-19 02:06:00,52.9,0.0,0.00,North,5,6.9,11.7,0,0.00,,,0.00,WUHU216PEETBRO,2013-02-19 08:06:00,
2013-02-19 02:11:00,52.9,0.0,0.00,North,354,4.6,10.4,0,0.00,,,0.00,WUHU216PEETBRO,2013-02-19 08:11:00,
2013-02-19 02:17:00,53.4,0.0,0.00,North,359,4.1,11.0,0,0.00,,,0.00,WUHU216PEETBRO,2013-02-19 08:17:00,
2013-02-19 02:22:00,52.4,0.0,0.00,NNW,345,5.5,11.0,0,0.00,,,0.00,WUHU216PEETBRO,2013-02-19 08:22:00,
2013-02-19 02:27:00,52.7,0.0,0.00,NNW,327,5.2,11.0,0,0.00,,,0.00,WUHU216PEETBRO,2013-02-19 08:27:00,
2013-02-19 02:32:00,52.4,0.0,0.00,NW,311,4.0,8.6,0,0.00,,,0.00,WUHU216PEETBRO,2013-02-19 08:32:00,
2013-02-19 02:38:00,51.9,0.0,0.00,North,359,4.0,9.4,0,0.00,,,0.00,WUHU216PEETBRO,2013-02-19 08:38:00,
2013-02-19 02:43:00,51.8,0.0,0.00,NNE,25,1.4,9.4,0,0.00,,,0.00,WUHU216PEETBRO,2013-02-19 08:43:00,
2013-02-19 02:48:00,51.7,0.0,0.00,NNW,347,4.5,7.5,0,0.00,,,0.00,WUHU216PEETBRO,2013-02-19 08:48:00,
2013-02-19 02:53:00,51.9,0.0,0.00,NNW,348,5.0,8.3,0,0.00,,,0.00,WUHU216PEETBRO,2013-02-19 08:53:00,
2013-02-19 02:59:00,51.7,0.0,0.00,NW,319,4.7,12.4,0,0.00,,,0.00,WUHU216PEETBRO,2013-02-19 08:59:00,
2013-02-19 03:04:00,50.9,0.0,0.00,North,5,4.2,12.4,0,0.00,,,0.00,WUHU216PEETBRO,2013-02-19 09:04:00,
2013-02-19 03:09:00,51.4,0.0,0.00,North,354,6.7,9.1,0,0.00,,,0.00,WUHU216PEETBRO,2013-02-19 09:09:00,
2013-02-19 03:14:00,50.9,0.0,0.00,North,359,3.3,9.4,0,0.00,,,0.00,WUHU216PEETBRO,2013-02-19 09:14:00,
2013-02-19 03:20:00,50.9,0.0,0.00,North,2,3.7,10.4,0,0.00,,,0.00,WUHU216PEETBRO,2013-02-19 09:20:00,
2013-02-19 03:25:00,50.3,0.0,0.00,North,359,3.2,10.4,0,0.00,,,0.00,WUHU216PEETBRO,2013-02-19 09:25:00,
2013-02-19 03:30:00,50.5,0.0,0.00,North,359,3.6,8.9,0,0.00,,,0.00,WUHU216PEETBRO,2013-02-19 09:30:00,
2013-02-19 03:35:00,50.2,0.0,0.00,North,2,2.7,12.1,0,0.00,,,0.00,WUHU216PEETBRO,2013-02-19 09:35:00,
2013-02-19 03:41:00,50.2,0.0,0.00,NNW,328,3.1,10.4,0,0.00,,,0.00,WUHU216PEETBRO,2013-02-19 09:41:00,
2013-02-19 03:46:00,50.1,0.0,0.00,NNW,333,2.8,7.0,0,0.00,,,0.00,WUHU216PEETBRO,2013-02-19 09:46:00,
2013-02-19 03:51:00,49.7,0.0,0.00,North,355,4.6,7.8,0,0.00,,,0.00,WUHU216PEETBRO,2013-02-19 09:51:00,
2013-02-19 03:56:00,49.7,0.0,0.00,North,7,4.5,7.8,0,0.00,,,0.00,WUHU216PEETBRO,2013-02-19 09:56:00,
2013-02-19 04:02:00,49.2,0.0,0.00,North,357,0.7,7.1,0,0.00,,,0.00,WUHU216PEETBRO,2013-02-19 10:02:00,
2013-02-19 04:07:00,48.9,0.0,0.00,North,351,2.4,7.1,0,0.00,,,0.00,WUHU216PEETBRO,2013-02-19 10:07:00,
2013-02-19 04:12:00,48.9,0.0,0.00,NNW,341,1.4,7.9,0,0.00,,,0.00,WUHU216PEETBRO,2013-02-19 10:12:00,
2013-02-19 04:17:00,48.9,0.0,0.00,NW,320,2.7,7.9,0,0.00,,,0.00,WUHU216PEETBRO,2013-02-19 10:17:00,
2013-02-19 04:23:00,48.2,0.0,0.00,NNW,335,4.3,6.5,0,0.00,,,0.00,WUHU216PEETBRO,2013-02-19 10:23:00,
2013-02-19 04:28:00,48.9,0.0,0.00,North,359,5.7,8.8,0,0.00,,,0.00,WUHU216PEETBRO,2013-02-19 10:28:00,
2013-02-19 04:33:00,48.9,0.0,0.00,NNW,341,6.1,9.6,0,0.00,,,0.00,WUHU216PEETBRO,2013-02-19 10:33:00,
2013-02-19 04:38:00,48.3,0.0,0.00,North,357,6.0,9.6,0,0.00,,,0.00,WUHU216PEETBRO,2013-02-19 10:38:00,
2013-02-19 04:43:00,48.2,0.0,0.00,North,351,1.9,8.2,0,0.00,,,0.00,WUHU216PEETBRO,2013-02-19 10:43:00,
2013-02-19 04:49:00,48.2,0.0,0.00,North,354,6.1,7.9,0,0.00,,,0.00,WUHU216PEETBRO,2013-02-19 10:49:00,
2013-02-19 04:54:00,47.9,0.0,0.00,North,0,1.8,6.7,0,0.00,,,0.00,WUHU216PEETBRO,2013-02-19 10:54:00,
2013-02-19 04:59:00,47.5,0.0,0.00,NNW,340,3.5,6.7,0,0.00,,,0.00,WUHU216PEETBRO,2013-02-19 10:59:00,
2013-02-19 05:04:00,47.5,0.0,0.00,North,359,3.7,7.5,0,0.00,,,0.00,WUHU216PEETBRO,2013-02-19 11:04:00,
2013-02-19 05:10:00,47.9,0.0,0.00,North,1,2.9,8.1,0,0.00,,,0.00,WUHU216PEETBRO,2013-02-19 11:10:00,
2013-02-19 05:15:00,47.5,0.0,0.00,North,7,4.9,8.1,0,0.00,,,0.00,WUHU216PEETBRO,2013-02-19 11:15:00,
2013-02-19 05:20:00,47.2,0.0,0.00,NNW,344,2.7,7.8,0,0.00,,,0.00,WUHU216PEETBRO,2013-02-19 11:20:00,
2013-02-19 05:25:00,47.0,0.0,0.00,North,358,1.9,6.4,0,0.00,,,0.00,WUHU216PEETBRO,2013-02-19 11:25:00,
2013-02-19 05:31:00,46.8,0.0,0.00,North,359,3.6,6.3,0,0.00,,,0.00,WUHU216PEETBRO,2013-02-19 11:31:00,
2013-02-19 05:36:00,47.0,0.0,0.00,NNW,345,3.6,7.1,0,0.00,,,0.00,WUHU216PEETBRO,2013-02-19 11:36:00,
2013-02-19 05:41:00,46.1,0.0,0.00,North,357,2.5,7.1,0,0.00,,,0.00,WUHU216PEETBRO,2013-02-19 11:41:00,
2013-02-19 05:46:00,46.5,0.0,0.00,North,11,1.2,6.7,0,0.00,,,0.00,WUHU216PEETBRO,2013-02-19 11:46:00,
2013-02-19 05:52:00,46.0,0.0,0.00,North,1,1.2,6.7,0,0.00,,,0.00,WUHU216PEETBRO,2013-02-19 11:52:00,
2013-02-19 05:57:00,46.0,0.0,0.00,North,8,2.5,6.1,0,0.00,,,0.00,WUHU216PEETBRO,2013-02-19 11:57:00,
2013-02-19 06:02:00,45.9,0.0,0.00,North,357,2.8,5.5,0,0.00,,,0.00,WUHU216PEETBRO,2013-02-19 12:02:00,
2013-02-19 06:07:00,46.0,0.0,0.00,NNE,12,4.3,5.5,0,0.00,,,0.00,WUHU216PEETBRO,2013-02-19 12:07:00,
2013-02-19 06:13:00,45.6,0.0,0.00,North,2,1.9,5.5,0,0.00,,,0.00,WUHU216PEETBRO,2013-02-19 12:13:00,
2013-02-19 06:18:00,45.6,0.0,0.00,NNE,25,2.2,5.1,0,0.00,,,0.00,WUHU216PEETBRO,2013-02-19 12:18:00,
2013-02-19 06:23:00,44.8,0.0,0.00,North,4,3.5,5.6,0,0.00,,,0.00,WUHU216PEETBRO,2013-02-19 12:23:00,
2013-02-19 06:28:00,44.9,0.0,0.00,North,359,3.2,5.6,0,0.00,,,0.00,WUHU216PEETBRO,2013-02-19 12:28:00,
2013-02-19 06:33:00,45.0,0.0,0.00,NNW,348,3.0,4.8,0,0.00,,,0.00,WUHU216PEETBRO,2013-02-19 12:33:00,
2013-02-19 06:38:00,44.6,0.0,0.00,NNW,341,2.7,5.1,0,0.00,,,0.00,WUHU216PEETBRO,2013-02-19 12:38:00,
2013-02-19 06:43:00,44.9,0.0,0.00,North,354,4.0,5.1,0,0.00,,,0.00,WUHU216PEETBRO,2013-02-19 12:43:00,
2013-02-19 06:58:00,45.1,0.0,0.00,North,0,5.9,6.0,0,0.00,,,0.00,WUHU216PEETBRO,2013-02-19 12:58:00,
2013-02-19 07:03:00,45.5,0.0,0.00,NNE,19,3.0,6.0,0,0.00,,,0.00,WUHU216PEETBRO,2013-02-19 13:03:00,
2013-02-19 07:08:00,47.5,0.0,0.00,NE,39,2.5,5.5,0,0.00,,,0.00,WUHU216PEETBRO,2013-02-19 13:08:00,
2013-02-19 07:13:00,47.7,0.0,0.00,NE,43,7.0,7.0,0,0.00,,,0.00,WUHU216PEETBRO,2013-02-19 13:13:00,
2013-02-19 07:18:00,50.6,0.0,0.00,North,4,6.2,7.0,0,0.00,,,0.00,WUHU216PEETBRO,2013-02-19 13:18:00,
2013-02-19 07:23:00,52.4,0.0,0.00,ESE,103,1.6,6.8,0,0.00,,,0.00,WUHU216PEETBRO,2013-02-19 13:23:00,
2013-02-19 07:28:00,53.4,0.0,0.00,North,7,0.0,6.8,0,0.00,,,0.00,WUHU216PEETBRO,2013-02-19 13:28:00,
2013-02-19 07:33:00,53.2,0.0,0.00,NE,45,2.5,9.5,0,0.00,,,0.00,WUHU216PEETBRO,2013-02-19 13:33:00,
2013-02-19 07:38:00,54.6,0.0,0.00,North,350,3.9,9.5,0,0.00,,,0.00,WUHU216PEETBRO,2013-02-19 13:38:00,
2013-02-19 07:43:00,54.3,0.0,0.00,NE,45,7.0,7.6,0,0.00,,,0.00,WUHU216PEETBRO,2013-02-19 13:43:00,
2013-02-19 07:48:00,54.3,0.0,0.00,NE,39,5.8,8.5,0,0.00,,,0.00,WUHU216PEETBRO,2013-02-19 13:48:00,
2013-02-19 07:53:00,54.1,0.0,0.00,NE,38,4.8,9.4,0,0.00,,,0.00,WUHU216PEETBRO,2013-02-19 13:53:00,
2013-02-19 07:58:00,54.6,0.0,0.00,North,359,4.0,10.5,0,0.00,,,0.00,WUHU216PEETBRO,2013-02-19 13:58:00,
2013-02-19 08:03:00,55.1,0.0,0.00,NNE,15,8.3,10.6,0,0.00,,,0.00,WUHU216PEETBRO,2013-02-19 14:03:00,
2013-02-19 08:08:00,55.9,0.0,0.00,North,1,8.0,11.7,0,0.00,,,0.00,WUHU216PEETBRO,2013-02-19 14:08:00,
2013-02-19 08:13:00,53.5,0.0,0.00,NE,42,9.4,11.7,0,0.00,,,0.00,WUHU216PEETBRO,2013-02-19 14:13:00,
2013-02-19 08:18:00,54.3,0.0,0.00,North,4,5.3,13.7,0,0.00,,,0.00,WUHU216PEETBRO,2013-02-19 14:18:00,
2013-02-19 08:23:00,55.9,0.0,0.00,NE,38,5.3,14.0,0,0.00,,,0.00,WUHU216PEETBRO,2013-02-19 14:23:00,
2013-02-19 08:28:00,57.2,0.0,0.00,NNE,12,11.9,14.0,0,0.00,,,0.00,WUHU216PEETBRO,2013-02-19 14:28:00,
2013-02-19 08:33:00,55.4,0.0,0.00,NNE,29,6.2,16.5,0,0.00,,,0.00,WUHU216PEETBRO,2013-02-19 14:33:00,
2013-02-19 08:38:00,57.5,0.0,0.00,NNE,21,6.6,16.5,0,0.00,,,0.00,WUHU216PEETBRO,2013-02-19 14:38:00,
2013-02-19 08:43:00,56.2,0.0,0.00,ESE,108,7.8,15.2,0,0.00,,,0.00,WUHU216PEETBRO,2013-02-19 14:43:00,
2013-02-19 08:48:00,53.8,0.0,0.00,NNE,21,5.7,12.2,0,0.00,,,0.00,WUHU216PEETBRO,2013-02-19 14:48:00,
2013-02-19 08:53:00,57.4,0.0,0.00,North,359,7.3,12.2,0,0.00,,,0.00,WUHU216PEETBRO,2013-02-19 14:53:00,
2013-02-19 08:58:00,57.4,0.0,0.00,NNE,12,9.2,11.4,0,0.00,,,0.00,WUHU216PEETBRO,2013-02-19 14:58:00,
2013-02-19 09:03:00,57.2,0.0,0.00,North,359,6.2,10.4,0,0.00,,,0.00,WUHU216PEETBRO,2013-02-19 15:03:00,
2013-02-19 09:08:00,55.9,0.0,0.00,ENE,73,8.5,10.4,0,0.00,,,0.00,WUHU216PEETBRO,2013-02-19 15:08:00,
2013-02-19 09:13:00,56.4,0.0,0.00,NE,50,7.1,17.2,0,0.00,,,0.00,WUHU216PEETBRO,2013-02-19 15:13:00,
2013-02-19 09:18:00,56.7,0.0,0.00,North,358,7.8,17.2,0,0.00,,,0.00,WUHU216PEETBRO,2013-02-19 15:18:00,
2013-02-19 09:23:00,58.8,0.0,0.00,North,1,4.7,14.2,0,0.00,,,0.00,WUHU216PEETBRO,2013-02-19 15:23:00,
2013-02-19 09:28:00,58.5,0.0,0.00,East,100,5.5,14.2,0,0.00,,,0.00,WUHU216PEETBRO,2013-02-19 15:28:00,
2013-02-19 09:33:00,61.2,0.0,0.00,North,0,3.0,11.6,0,0.00,,,0.00,WUHU216PEETBRO,2013-02-19 15:33:00,
2013-02-19 09:38:00,58.2,0.0,0.00,East,84,4.3,10.4,0,0.00,,,0.00,WUHU216PEETBRO,2013-02-19 15:38:00,
2013-02-19 09:43:00,59.3,0.0,0.00,ENE,70,6.5,11.1,0,0.00,,,0.00,WUHU216PEETBRO,2013-02-19 15:43:00,
2013-02-19 09:48:00,59.4,0.0,0.00,NE,43,2.1,11.1,0,0.00,,,0.00,WUHU216PEETBRO,2013-02-19 15:48:00,
2013-02-19 09:53:00,62.5,0.0,0.00,East,79,3.7,9.7,0,0.00,,,0.00,WUHU216PEETBRO,2013-02-19 15:53:00,
2013-02-19 09:58:00,61.2,0.0,0.00,North,4,3.4,12.2,0,0.00,,,0.00,WUHU216PEETBRO,2013-02-19 15:58:00,
2013-02-19 10:03:00,60.9,0.0,0.00,ENE,73,8.1,12.2,0,0.00,,,0.00,WUHU216PEETBRO,2013-02-19 16:03:00,
2013-02-19 10:08:00,65.0,0.0,0.00,North,2,3.9,10.2,0,0.00,,,0.00,WUHU216PEETBRO,2013-02-19 16:08:00,
2013-02-19 10:13:00,64.2,0.0,0.00,NNW,343,5.3,10.1,0,0.00,,,0.00,WUHU216PEETBRO,2013-02-19 16:13:00,
2013-02-19 10:18:00,62.5,0.0,0.00,NNE,22,1.8,10.1,0,0.00,,,0.00,WUHU216PEETBRO,2013-02-19 16:18:00,
2013-02-19 10:23:00,63.0,0.0,0.00,North,359,7.2,11.0,0,0.00,,,0.00,WUHU216PEETBRO,2013-02-19 16:23:00,
2013-02-19 10:28:00,61.1,0.0,0.00,North,359,2.5,11.0,0,0.00,,,0.00,WUHU216PEETBRO,2013-02-19 16:28:00,
2013-02-19 10:33:00,62.5,0.0,0.00,SSE,155,5.5,9.9,0,0.00,,,0.00,WUHU216PEETBRO,2013-02-19 16:33:00,
2013-02-19 10:38:00,63.0,0.0,0.00,NNE,32,0.0,9.4,0,0.00,,,0.00,WUHU216PEETBRO,2013-02-19 16:38:00,
2013-02-19 10:43:00,67.8,0.0,0.00,NW,309,7.3,9.4,0,0.00,,,0.00,WUHU216PEETBRO,2013-02-19 16:43:00,
2013-02-19 10:46:00,66.4,0.0,0.00,North,5,4.3,9.4,0,0.00,,,0.00,WUHU216PEETBRO,2013-02-19 16:46:00,
2013-02-19 10:51:00,61.6,0.0,0.00,NE,38,4.0,11.5,0,0.00,,,0.00,WUHU216PEETBRO,2013-02-19 16:51:00,
2013-02-19 10:56:00,65.0,0.0,0.00,NNW,348,4.9,11.5,0,0.00,,,0.00,WUHU216PEETBRO,2013-02-19 16:56:00,
2013-02-19 11:01:00,68.7,0.0,0.00,North,2,8.1,13.0,0,0.00,,,0.00,WUHU216PEETBRO,2013-02-19 17:01:00,
2013-02-19 11:06:00,66.4,0.0,0.00,North,359,8.3,13.0,0,0.00,,,0.00,WUHU216PEETBRO,2013-02-19 17:06:00,
2013-02-19 11:11:00,66.5,0.0,0.00,NE,53,2.4,12.0,0,0.00,,,0.00,WUHU216PEETBRO,2013-02-19 17:11:00,
2013-02-19 11:16:00,64.4,0.0,0.00,ENE,67,5.4,10.7,0,0.00,,,0.00,WUHU216PEETBRO,2013-02-19 17:16:00,
2013-02-19 11:21:00,66.1,0.0,0.00,North,357,6.3,13.5,0,0.00,,,0.00,WUHU216PEETBRO,2013-02-19 17:21:00,
2013-02-19 11:26:00,68.2,0.0,0.00,South,184,4.8,13.5,0,0.00,,,0.00,WUHU216PEETBRO,2013-02-19 17:26:00,
2013-02-19 11:31:00,65.6,0.0,0.00,ENE,66,6.0,11.4,0,0.00,,,0.00,WUHU216PEETBRO,2013-02-19 17:31:00,
2013-02-19 11:36:00,67.3,0.0,0.00,SE,143,4.2,11.4,0,0.00,,,0.00,WUHU216PEETBRO,2013-02-19 17:36:00,
2013-02-19 11:41:00,66.4,0.0,0.00,ESE,115,6.0,13.2,0,0.00,,,0.00,WUHU216PEETBRO,2013-02-19 17:41:00,
2013-02-19 11:46:00,68.2,0.0,0.00,NNW,337,5.4,13.2,0,0.00,,,0.00,WUHU216PEETBRO,2013-02-19 17:46:00,
2013-02-19 11:49:00,68.7,0.0,0.00,NNE,12,4.7,10.4,0,0.00,,,0.00,WUHU216PEETBRO,2013-02-19 17:49:00,
2013-02-19 11:54:00,69.0,0.0,0.00,NE,47,3.0,10.9,0,0.00,,,0.00,WUHU216PEETBRO,2013-02-19 17:54:00,
2013-02-19 11:59:00,69.9,0.0,0.00,North,351,5.7,10.9,0,0.00,,,0.00,WUHU216PEETBRO,2013-02-19 17:59:00,
2013-02-19 12:04:00,67.7,0.0,0.00,South,187,5.0,10.3,0,0.00,,,0.00,WUHU216PEETBRO,2013-02-19 18:04:00,
2013-02-19 12:09:00,70.2,0.0,0.00,North,9,5.6,11.5,0,0.00,,,0.00,WUHU216PEETBRO,2013-02-19 18:09:00,
2013-02-19 12:14:00,69.0,0.0,0.00,NE,39,4.7,12.7,0,0.00,,,0.00,WUHU216PEETBRO,2013-02-19 18:14:00,
2013-02-19 12:19:00,69.5,0.0,0.00,North,352,6.5,12.7,0,0.00,,,0.00,WUHU216PEETBRO,2013-02-19 18:19:00,
2013-02-19 12:24:00,69.0,0.0,0.00,North,350,11.7,13.3,0,0.00,,,0.00,WUHU216PEETBRO,2013-02-19 18:24:00,
2013-02-19 12:29:00,70.8,0.0,0.00,North,5,4.5,13.3,0,0.00,,,0.00,WUHU216PEETBRO,2013-02-19 18:29:00,
2013-02-19 12:34:00,67.3,0.0,0.00,SE,141,7.6,11.7,0,0.00,,,0.00,WUHU216PEETBRO,2013-02-19 18:34:00,
2013-02-19 12:39:00,70.7,0.0,0.00,ENE,70,4.5,10.8,0,0.00,,,0.00,WUHU216PEETBRO,2013-02-19 18:39:00,
2013-02-19 12:44:00,73.0,0.0,0.00,NNW,333,6.5,10.8,0,0.00,,,0.00,WUHU216PEETBRO,2013-02-19 18:44:00,
2013-02-19 12:49:00,71.1,0.0,0.00,NNW,337,7.7,12.2,0,0.00,,,0.00,WUHU216PEETBRO,2013-02-19 18:49:00,
2013-02-19 12:54:00,67.0,0.0,0.00,SE,139,3.0,12.2,0,0.00,,,0.00,WUHU216PEETBRO,2013-02-19 18:54:00,
2013-02-19 12:59:00,73.0,0.0,0.00,ENE,62,3.5,11.6,0,0.00,,,0.00,WUHU216PEETBRO,2013-02-19 18:59:00,
2013-02-19 13:04:00,72.3,0.0,0.00,North,352,6.8,11.2,0,0.00,,,0.00,WUHU216PEETBRO,2013-02-19 19:04:00,
2013-02-19 13:09:00,70.8,0.0,0.00,North,359,7.0,11.2,0,0.00,,,0.00,WUHU216PEETBRO,2013-02-19 19:09:00,
2013-02-19 13:14:00,70.8,0.0,0.00,North,0,6.0,11.2,0,0.00,,,0.00,WUHU216PEETBRO,2013-02-19 19:14:00,
2013-02-19 13:19:00,71.4,0.0,0.00,North,359,7.6,12.2,0,0.00,,,0.00,WUHU216PEETBRO,2013-02-19 19:19:00,
2013-02-19 13:24:00,69.9,0.0,0.00,NE,38,4.5,12.5,0,0.00,,,0.00,WUHU216PEETBRO,2013-02-19 19:24:00,
2013-02-19 13:29:00,68.2,0.0,0.00,NNE,32,9.3,12.5,0,0.00,,,0.00,WUHU216PEETBRO,2013-02-19 19:29:00,
2013-02-19 13:34:00,71.0,0.0,0.00,NNW,340,5.6,10.9,0,0.00,,,0.00,WUHU216PEETBRO,2013-02-19 19:34:00,
2013-02-19 13:39:00,64.8,0.0,0.00,SE,125,7.7,12.1,0,0.00,,,0.00,WUHU216PEETBRO,2013-02-19 19:39:00,
2013-02-19 13:44:00,65.0,0.0,0.00,North,2,10.3,13.0,0,0.00,,,0.00,WUHU216PEETBRO,2013-02-19 19:44:00,
2013-02-19 13:49:00,65.9,0.0,0.00,North,8,5.3,14.3,0,0.00,,,0.00,WUHU216PEETBRO,2013-02-19 19:49:00,
2013-02-19 13:54:00,65.0,0.0,0.00,NE,56,4.3,14.3,0,0.00,,,0.00,WUHU216PEETBRO,2013-02-19 19:54:00,
2013-02-19 13:59:00,65.8,0.0,0.00,North,5,6.8,11.2,0,0.00,,,0.00,WUHU216PEETBRO,2013-02-19 19:59:00,
2013-02-19 14:04:00,64.8,0.0,0.00,NNE,29,5.8,13.0,0,0.00,,,0.00,WUHU216PEETBRO,2013-02-19 20:04:00,
2013-02-19 14:09:00,66.8,0.0,0.00,SE,129,7.9,13.3,0,0.00,,,0.00,WUHU216PEETBRO,2013-02-19 20:09:00,
2013-02-19 14:14:00,71.7,0.0,0.00,NNE,25,2.6,14.7,0,0.00,,,0.00,WUHU216PEETBRO,2013-02-19 20:14:00,
2013-02-19 14:19:00,73.0,0.0,0.00,NNE,21,7.6,14.7,0,0.00,,,0.00,WUHU216PEETBRO,2013-02-19 20:19:00,
2013-02-19 14:24:00,72.3,0.0,0.00,NE,43,3.1,10.7,0,0.00,,,0.00,WUHU216PEETBRO,2013-02-19 20:24:00,
2013-02-19 14:29:00,68.2,0.0,0.00,ENE,62,4.3,10.7,0,0.00,,,0.00,WUHU216PEETBRO,2013-02-19 20:29:00,
2013-02-19 14:34:00,74.2,0.0,0.00,NE,45,6.5,11.0,0,0.00,,,0.00,WUHU216PEETBRO,2013-02-19 20:34:00,
2013-02-19 14:39:00,73.3,0.0,0.00,NNW,333,5.8,11.0,0,0.00,,,0.00,WUHU216PEETBRO,2013-02-19 20:39:00,
2013-02-19 14:44:00,74.2,0.0,0.00,NE,50,3.3,8.9,0,0.00,,,0.00,WUHU216PEETBRO,2013-02-19 20:44:00,
2013-02-19 14:49:00,68.7,0.0,0.00,SE,135,9.6,13.9,0,0.00,,,0.00,WUHU216PEETBRO,2013-02-19 20:49:00,
2013-02-19 14:54:00,69.0,0.0,0.00,ENE,67,9.4,13.9,0,0.00,,,0.00,WUHU216PEETBRO,2013-02-19 20:54:00,
2013-02-19 14:59:00,66.5,0.0,0.00,ESE,107,7.5,13.4,0,0.00,,,0.00,WUHU216PEETBRO,2013-02-19 20:59:00,
2013-02-19 15:04:00,67.3,0.0,0.00,North,8,4.6,13.3,0,0.00,,,0.00,WUHU216PEETBRO,2013-02-19 21:04:00,
2013-02-19 15:09:00,69.9,0.0,0.00,NNE,12,11.2,11.8,0,0.00,,,0.00,WUHU216PEETBRO,2013-02-19 21:09:00,
2013-02-19 15:14:00,70.2,0.0,0.00,North,9,4.0,11.2,0,0.00,,,0.00,WUHU216PEETBRO,2013-02-19 21:14:00,
2013-02-19 15:19:00,68.2,0.0,0.00,East,97,3.2,10.9,0,0.00,,,0.00,WUHU216PEETBRO,2013-02-19 21:19:00,
2013-02-19 15:24:00,71.4,0.0,0.00,North,5,7.7,10.9,0,0.00,,,0.00,WUHU216PEETBRO,2013-02-19 21:24:00,
2013-02-19 15:29:00,69.0,0.0,0.00,NE,45,5.7,13.2,0,0.00,,,0.00,WUHU216PEETBRO,2013-02-19 21:29:00,
2013-02-19 15:34:00,71.0,0.0,0.00,North,359,3.7,13.2,0,0.00,,,0.00,WUHU216PEETBRO,2013-02-19 21:34:00,
2013-02-19 15:39:00,69.0,0.0,0.00,North,359,8.0,13.4,0,0.00,,,0.00,WUHU216PEETBRO,2013-02-19 21:39:00,
2013-02-19 15:44:00,69.3,0.0,0.00,NNE,12,1.9,13.4,0,0.00,,,0.00,WUHU216PEETBRO,2013-02-19 21:44:00,
2013-02-19 15:49:00,70.5,0.0,0.00,SE,127,6.6,9.9,0,0.00,,,0.00,WUHU216PEETBRO,2013-02-19 21:49:00,
2013-02-19 15:54:00,72.0,0.0,0.00,NNE,22,0.0,8.6,0,0.00,,,0.00,WUHU216PEETBRO,2013-02-19 21:54:00,
2013-02-19 15:59:00,66.5,0.0,0.00,ENE,70,5.6,11.1,0,0.00,,,0.00,WUHU216PEETBRO,2013-02-19 21:59:00,
2013-02-19 16:04:00,65.0,0.0,0.00,East,88,8.2,11.2,0,0.00,,,0.00,WUHU216PEETBRO,2013-02-19 22:04:00,
2013-02-19 16:09:00,65.3,0.0,0.00,East,87,6.2,11.9,0,0.00,,,0.00,WUHU216PEETBRO,2013-02-19 22:09:00,
2013-02-19 16:14:00,64.4,0.0,0.00,ESE,115,7.3,11.9,0,0.00,,,0.00,WUHU216PEETBRO,2013-02-19 22:14:00,
2013-02-19 16:19:00,64.8,0.0,0.00,ESE,111,4.7,10.4,0,0.00,,,0.00,WUHU216PEETBRO,2013-02-19 22:19:00,
2013-02-19 16:24:00,68.2,0.0,0.00,ESE,117,6.2,9.6,0,0.00,,,0.00,WUHU216PEETBRO,2013-02-19 22:24:00,
2013-02-19 16:29:00,65.9,0.0,0.00,East,84,3.4,8.8,0,0.00,,,0.00,WUHU216PEETBRO,2013-02-19 22:29:00,
2013-02-19 16:34:00,65.0,0.0,0.00,ENE,57,2.8,8.4,0,0.00,,,0.00,WUHU216PEETBRO,2013-02-19 22:34:00,
2013-02-19 16:39:00,63.9,0.0,0.00,ENE,63,4.5,9.5,0,0.00,,,0.00,WUHU216PEETBRO,2013-02-19 22:39:00,
2013-02-19 16:44:00,63.6,0.0,0.00,SSE,148,5.2,9.6,0,0.00,,,0.00,WUHU216PEETBRO,2013-02-19 22:44:00,
2013-02-19 16:49:00,63.3,0.0,0.00,SE,139,2.9,10.1,0,0.00,,,0.00,WUHU216PEETBRO,2013-02-19 22:49:00,
2013-02-19 16:54:00,63.0,0.0,0.00,ENE,76,4.2,10.1,0,0.00,,,0.00,WUHU216PEETBRO,2013-02-19 22:54:00,
2013-02-19 16:59:00,62.5,0.0,0.00,East,97,4.8,9.8,0,0.00,,,0.00,WUHU216PEETBRO,2013-02-19 22:59:00,
2013-02-19 17:04:00,62.5,0.0,0.00,East,95,6.8,9.8,0,0.00,,,0.00,WUHU216PEETBRO,2013-02-19 23:04:00,
2013-02-19 17:09:00,61.6,0.0,0.00,ESE,117,3.0,8.8,0,0.00,,,0.00,WUHU216PEETBRO,2013-02-19 23:09:00,
2013-02-19 17:14:00,60.3,0.0,0.00,ESE,115,4.0,8.8,0,0.00,,,0.00,WUHU216PEETBRO,2013-02-19 23:14:00,
2013-02-19 17:19:00,60.3,0.0,0.00,SSE,166,3.3,8.6,0,0.00,,,0.00,WUHU216PEETBRO,2013-02-19 23:19:00,
2013-02-19 17:24:00,59.3,0.0,0.00,NE,56,6.7,9.0,0,0.00,,,0.00,WUHU216PEETBRO,2013-02-19 23:24:00,
2013-02-19 17:29:00,57.5,0.0,0.00,East,81,2.3,9.0,0,0.00,,,0.00,WUHU216PEETBRO,2013-02-19 23:29:00,
2013-02-19 17:34:00,56.7,0.0,0.00,NNE,12,0.7,7.1,0,0.00,,,0.00,WUHU216PEETBRO,2013-02-19 23:34:00,
2013-02-19 17:39:00,56.7,0.0,0.00,ENE,59,2.0,5.0,0,0.00,,,0.00,WUHU216PEETBRO,2013-02-19 23:39:00,
2013-02-19 17:44:00,55.9,0.0,0.00,NE,39,0.4,5.0,0,0.00,,,0.00,WUHU216PEETBRO,2013-02-19 23:44:00,
2013-02-19 17:49:00,55.5,0.0,0.00,NNE,26,0.0,4.0,0,0.00,,,0.00,WUHU216PEETBRO,2013-02-19 23:49:00,
2013-02-19 17:54:00,55.4,0.0,0.00,ESE,119,2.1,3.7,0,0.00,,,0.00,WUHU216PEETBRO,2013-02-19 23:54:00,
2013-02-19 17:59:00,54.6,0.0,0.00,East,93,1.3,4.9,0,0.00,,,0.00,WUHU216PEETBRO,2013-02-19 23:59:00,
2013-02-19 18:04:00,53.5,0.0,0.00,NE,55,0.0,4.9,0,0.00,,,0.00,WUHU216PEETBRO,2013-02-20 00:04:00,
2013-02-19 18:09:00,53.6,0.0,0.00,East,86,1.2,4.7,0,0.00,,,0.00,WUHU216PEETBRO,2013-02-20 00:09:00,
2013-02-19 18:14:00,53.1,0.0,0.00,ENE,64,0.0,4.7,0,0.00,,,0.00,WUHU216PEETBRO,2013-02-20 00:14:00,
2013-02-19 18:19:00,52.4,0.0,0.00,East,84,0.0,3.5,0,0.00,,,0.00,WUHU216PEETBRO,2013-02-20 00:19:00,
2013-02-19 18:24:00,51.7,0.0,0.00,East,84,0.0,2.9,0,0.00,,,0.00,WUHU216PEETBRO,2013-02-20 00:24:00,
2013-02-19 18:29:00,52.4,0.0,0.00,ENE,57,2.5,4.5,0,0.00,,,0.00,WUHU216PEETBRO,2013-02-20 00:29:00,
2013-02-19 18:34:00,52.4,0.0,0.00,ENE,73,0.0,5.0,0,0.00,,,0.00,WUHU216PEETBRO,2013-02-20 00:34:00,
2013-02-19 18:39:00,51.9,0.0,0.00,NE,38,3.1,5.0,0,0.00,,,0.00,WUHU216PEETBRO,2013-02-20 00:39:00,
2013-02-19 18:44:00,51.7,0.0,0.00,North,0,0.0,4.5,0,0.00,,,0.00,WUHU216PEETBRO,2013-02-20 00:44:00,
2013-02-19 18:49:00,50.2,0.0,0.00,North,0,0.0,4.3,0,0.00,,,0.00,WUHU216PEETBRO,2013-02-20 00:49:00,
2013-02-19 18:54:00,49.7,0.0,0.00,NNE,12,0.0,3.1,0,0.00,,,0.00,WUHU216PEETBRO,2013-02-20 00:54:00,
2013-02-19 18:59:00,48.7,0.0,0.00,NNE,12,0.0,3.1,0,0.00,,,0.00,WUHU216PEETBRO,2013-02-20 00:59:00,
2013-02-19 19:04:00,48.9,0.0,0.00,NNE,12,0.0,0.0,0,0.00,,,0.00,WUHU216PEETBRO,2013-02-20 01:04:00,
2013-02-19 19:09:00,49.5,0.0,0.00,NNE,12,0.0,0.0,0,0.00,,,0.00,WUHU216PEETBRO,2013-02-20 01:09:00,
2013-02-19 19:14:00,48.7,0.0,0.00,NNE,32,0.9,2.7,0,0.00,,,0.00,WUHU216PEETBRO,2013-02-20 01:14:00,
2013-02-19 19:19:00,49.3,0.0,0.00,NNE,29,1.9,4.0,0,0.00,,,0.00,WUHU216PEETBRO,2013-02-20 01:19:00,
2013-02-19 19:24:00,48.9,0.0,0.00,ENE,73,1.5,4.0,0,0.00,,,0.00,WUHU216PEETBRO,2013-02-20 01:24:00,
2013-02-19 19:29:00,48.2,0.0,0.00,NNE,23,0.0,3.4,0,0.00,,,0.00,WUHU216PEETBRO,2013-02-20 01:29:00,
2013-02-19 19:34:00,48.2,0.0,0.00,North,7,0.0,2.4,0,0.00,,,0.00,WUHU216PEETBRO,2013-02-20 01:34:00,
2013-02-19 19:39:00,47.5,0.0,0.00,ENE,59,0.0,3.0,0,0.00,,,0.00,WUHU216PEETBRO,2013-02-20 01:39:00,
2013-02-19 19:44:00,47.2,0.0,0.00,NNE,21,0.0,3.0,0,0.00,,,0.00,WUHU216PEETBRO,2013-02-20 01:44:00,
2013-02-19 19:49:00,47.5,0.0,0.00,NNE,21,0.0,2.7,0,0.00,,,0.00,WUHU216PEETBRO,2013-02-20 01:49:00,
2013-02-19 19:54:00,47.0,0.0,0.00,NNE,21,0.0,0.0,0,0.00,,,0.00,WUHU216PEETBRO,2013-02-20 01:54:00,
2013-02-19 19:59:00,46.9,0.0,0.00,NNE,21,0.0,0.0,0,0.00,,,0.00,WUHU216PEETBRO,2013-02-20 01:59:00,
2013-02-19 20:04:00,45.6,0.0,0.00,NNE,21,0.0,0.0,0,0.00,,,0.00,WUHU216PEETBRO,2013-02-20 02:04:00,
2013-02-19 20:09:00,44.4,0.0,0.00,NNE,21,0.0,0.0,0,0.00,,,0.00,WUHU216PEETBRO,2013-02-20 02:09:00,
2013-02-19 20:14:00,44.1,0.0,0.00,NNE,21,0.0,0.0,0,0.00,,,0.00,WUHU216PEETBRO,2013-02-20 02:14:00,
2013-02-19 20:19:00,44.4,0.0,0.00,NNE,21,0.0,0.0,0,0.00,,,0.00,WUHU216PEETBRO,2013-02-20 02:19:00,
2013-02-19 20:24:00,43.3,0.0,0.00,NNE,21,0.0,0.0,0,0.00,,,0.00,WUHU216PEETBRO,2013-02-20 02:24:00,
2013-02-19 20:29:00,43.0,0.0,0.00,NNE,21,0.0,0.0,0,0.00,,,0.00,WUHU216PEETBRO,2013-02-20 02:29:00,
2013-02-19 20:34:00,43.8,0.0,0.00,NNE,21,0.0,0.0,0,0.00,,,0.00,WUHU216PEETBRO,2013-02-20 02:34:00,
2013-02-19 20:39:00,42.8,0.0,0.00,NNE,21,0.0,0.0,0,0.00,,,0.00,WUHU216PEETBRO,2013-02-20 02:39:00,
2013-02-19 20:44:00,41.6,0.0,0.00,NNE,21,0.0,0.0,0,0.00,,,0.00,WUHU216PEETBRO,2013-02-20 02:44:00,
2013-02-19 20:49:00,41.6,0.0,0.00,NNE,21,0.0,0.0,0,0.00,,,0.00,WUHU216PEETBRO,2013-02-20 02:49:00,
2013-02-19 20:54:00,41.6,0.0,0.00,NNE,21,0.0,0.0,0,0.00,,,0.00,WUHU216PEETBRO,2013-02-20 02:54:00,
2013-02-19 20:59:00,41.8,0.0,0.00,NNE,21,0.0,0.0,0,0.00,,,0.00,WUHU216PEETBRO,2013-02-20 02:59:00,
2013-02-19 21:04:00,41.6,0.0,0.00,NNE,21,0.0,0.0,0,0.00,,,0.00,WUHU216PEETBRO,2013-02-20 03:04:00,
2013-02-19 21:09:00,41.6,0.0,0.00,NNE,21,0.0,0.0,0,0.00,,,0.00,WUHU216PEETBRO,2013-02-20 03:09:00,
2013-02-19 21:14:00,41.1,0.0,0.00,NNE,21,0.0,0.0,0,0.00,,,0.00,WUHU216PEETBRO,2013-02-20 03:14:00,
2013-02-19 21:19:00,41.6,0.0,0.00,NNE,21,0.0,0.0,0,0.00,,,0.00,WUHU216PEETBRO,2013-02-20 03:19:00,
2013-02-19 21:24:00,41.9,0.0,0.00,NNE,21,0.0,0.0,0,0.00,,,0.00,WUHU216PEETBRO,2013-02-20 03:24:00,
2013-02-19 21:29:00,41.6,0.0,0.00,NNE,21,0.0,0.0,0,0.00,,,0.00,WUHU216PEETBRO,2013-02-20 03:29:00,
2013-02-19 21:34:00,41.3,0.0,0.00,NNE,21,0.0,0.0,0,0.00,,,0.00,WUHU216PEETBRO,2013-02-20 03:34:00,
2013-02-19 21:39:00,41.6,0.0,0.00,NNE,21,0.0,0.0,0,0.00,,,0.00,WUHU216PEETBRO,2013-02-20 03:39:00,
2013-02-19 21:44:00,42.3,0.0,0.00,NNE,21,0.0,0.0,0,0.00,,,0.00,WUHU216PEETBRO,2013-02-20 03:44:00,
2013-02-19 21:49:00,42.1,0.0,0.00,NNE,21,0.0,0.0,0,0.00,,,0.00,WUHU216PEETBRO,2013-02-20 03:49:00,
2013-02-19 21:54:00,41.3,0.0,0.00,NNE,21,0.0,0.0,0,0.00,,,0.00,WUHU216PEETBRO,2013-02-20 03:54:00,
2013-02-19 21:59:00,41.6,0.0,0.00,NNE,21,0.0,0.0,0,0.00,,,0.00,WUHU216PEETBRO,2013-02-20 03:59:00,
2013-02-19 22:04:00,43.3,0.0,0.00,NNE,21,0.0,0.0,0,0.00,,,0.00,WUHU216PEETBRO,2013-02-20 04:04:00,
2013-02-19 22:09:00,42.8,0.0,0.00,NNE,21,0.0,0.0,0,0.00,,,0.00,WUHU216PEETBRO,2013-02-20 04:09:00,
2013-02-19 22:14:00,42.3,0.0,0.00,NNE,21,0.0,0.0,0,0.00,,,0.00,WUHU216PEETBRO,2013-02-20 04:14:00,
2013-02-19 22:19:00,42.4,0.0,0.00,NNE,21,0.0,0.0,0,0.00,,,0.00,WUHU216PEETBRO,2013-02-20 04:19:00,
2013-02-19 22:24:00,43.0,0.0,0.00,NNE,21,0.0,0.0,0,0.00,,,0.00,WUHU216PEETBRO,2013-02-20 04:24:00,
2013-02-19 22:29:00,42.8,0.0,0.00,NNE,21,0.0,0.0,0,0.00,,,0.00,WUHU216PEETBRO,2013-02-20 04:29:00,
2013-02-19 22:34:00,43.0,0.0,0.00,NNE,21,0.0,0.0,0,0.00,,,0.00,WUHU216PEETBRO,2013-02-20 04:34:00,
2013-02-19 22:39:00,43.0,0.0,0.00,NNE,21,0.0,0.0,0,0.00,,,0.00,WUHU216PEETBRO,2013-02-20 04:39:00,
2013-02-19 22:44:00,42.6,0.0,0.00,NNE,21,0.0,0.0,0,0.00,,,0.00,WUHU216PEETBRO,2013-02-20 04:44:00,
2013-02-19 22:49:00,43.8,0.0,0.00,NNE,21,0.0,0.0,0,0.00,,,0.00,WUHU216PEETBRO,2013-02-20 04:49:00,
2013-02-19 22:54:00,43.5,0.0,0.00,NNE,21,0.0,0.0,0,0.00,,,0.00,WUHU216PEETBRO,2013-02-20 04:54:00,
2013-02-19 22:59:00,44.3,0.0,0.00,NNE,21,0.0,0.0,0,0.00,,,0.00,WUHU216PEETBRO,2013-02-20 04:59:00,
2013-02-19 23:00:00,43.8,0.0,0.00,NNE,21,0.0,0.0,0,0.00,,,0.00,WUHU216PEETBRO,2013-02-20 05:00:00,
2013-02-19 23:05:00,43.0,0.0,0.00,NNE,21,0.0,0.0,0,0.00,,,0.00,WUHU216PEETBRO,2013-02-20 05:05:00,
2013-02-19 23:10:00,43.2,0.0,0.00,NNE,21,0.0,0.0,0,0.00,,,0.00,WUHU216PEETBRO,2013-02-20 05:10:00,
2013-02-19 23:15:00,43.3,0.0,0.00,NNE,21,0.0,0.0,0,0.00,,,0.00,WUHU216PEETBRO,2013-02-20 05:15:00,
2013-02-19 23:20:00,43.8,0.0,0.00,NNE,21,0.0,0.0,0,0.00,,,0.00,WUHU216PEETBRO,2013-02-20 05:20:00,
2013-02-19 23:25:00,44.3,0.0,0.00,NNE,21,0.0,0.0,0,0.00,,,0.00,WUHU216PEETBRO,2013-02-20 05:25:00,
2013-02-19 23:30:00,44.6,0.0,0.00,NNE,21,0.0,0.0,0,0.00,,,0.00,WUHU216PEETBRO,2013-02-20 05:30:00,
2013-02-19 23:35:00,46.7,0.0,0.00,NNE,21,0.0,0.0,0,0.00,,,0.00,WUHU216PEETBRO,2013-02-20 05:35:00,
2013-02-19 23:40:00,47.1,0.0,0.00,East,90,1.1,3.0,0,0.00,,,0.00,WUHU216PEETBRO,2013-02-20 05:40:00,
2013-02-19 23:45:00,47.0,0.0,0.00,East,91,0.0,3.0,0,0.00,,,0.00,WUHU216PEETBRO,2013-02-20 05:45:00,
2013-02-19 23:50:00,46.4,0.0,0.00,East,91,0.0,0.7,0,0.00,,,0.00,WUHU216PEETBRO,2013-02-20 05:50:00,
2013-02-19 23:55:00,47.5,0.0,0.00,SE,132,0.5,3.1,0,0.00,,,0.00,WUHU216PEETBRO,2013-02-20 05:55:00,